Regional Weather Roundup
Issued by NWS Wakefield, VA

Home | Current Version | Previous Version | Graphics & Text | Print | Product List | Glossary On
Versions: 1 2 3 4 5 6 7 8 9 10 11 12 13 14 15 16 17 18 19 20 21 22 23 24 25 26 27
000
ASUS41 KAKQ 301015
RWRAKQ

REGIONAL WEATHER ROUNDUP
NATIONAL WEATHER SERVICE WAKEFIELD VA
600 AM EDT MON MAY 30 2016

Note: "fair" indicates few or no clouds below 12,000 feet with no
significant weather and/or obstructions to visibility. * = Denotes
station may not report precipitation (e.g., rain,snow,etc.),
thunder or fog.

VAZ042-051-052>054-056-301100-
NORTHERN VIRGINIA

CITY           SKY/WX    TMP DP  RH WIND       PRES   REMARKS
WASH NATIONAL  MOCLDY    69  65  86 NW5       30.01R
DULLES         MOCLDY    64  62  93 CALM      30.01F
FORT BELVOIR   FAIR      66  64  94 CALM      30.01R FOG
QUANTICO       CLOUDY    69  67  93 NW5       30.02R
FREDERICKSBRG* CLOUDY    67  67 100 CALM      30.01R
STAFFORD*      CLOUDY    65  64  95 CALM      30.05S FOG
WARRENTON      FAIR      65  61  86 CALM      30.01S FOG
CULPEPER*        N/A     64  64 100 CALM      30.02S FOG
MANASSAS*      FAIR      66  66 100 CALM      30.01S
LEESBURG*      FAIR      63  63 100 CALM      30.02S
WINCHESTER     CLOUDY    63  61  94 CALM      30.03S
FRONT ROYAL*   PTSUNNY   61  61 100 SW3       30.03S
LURAY*         FAIR      61  61 100 CALM      30.04S
$$

VAZ048-049-060>072-079>083-301100-
CENTRAL AND SOUTH CENTRAL VIRGINIA

CITY           SKY/WX    TMP DP  RH WIND       PRES   REMARKS
RICHMOND       CLOUDY    66  66 100 NW6       30.01R FOG
CHESTERFIELD*  CLOUDY    66  55  68 CALM      30.02S
PETERSBURG*    FOG       69  69 100 CALM      30.02R VSB 1/2
HANOVER        FOG       66  65  96 CALM      30.03R VSB 3/4
TAPPAHANNOCK*  FOG       72  72 100 NW3       30.01S VSB 1/4
QUINTON*       FOG       68  68 100 W3        30.00R VSB 1/4
CHARLOTTSVILLE CLOUDY    63  60  90 S6        30.03R
GORDONSVILLE*  PTSUNNY   62  62 100 CALM      30.02S
ORANGE*        FAIR      64  64 100 SW3       30.03S
LOUISA*        CLOUDY    68  66  94 CALM      30.02R
BUMPASS*       FAIR      64  64 100 CALM      30.02S
FARMVILLE*     CLOUDY    64  64 100 CALM      30.02R
CREWE*         CLOUDY    65  65 100 CALM      30.02R
FORT PICKETT*  NOT AVBL
CHASE CITY*    CLOUDY    65  63  94 CALM      30.02S
CLARKSVILLE*   CLOUDY    64  64 100 NW3       30.02R VSB 1/4
SOUTH HILL*    CLOUDY    68  68 100 N3        30.07R VSB 1/4
LAWRENCEVILLE* CLOUDY    69  69 100 NW5       30.01R VSB 3/4
EMPORIA*       CLOUDY    70  70 100 CALM      30.01S FOG
$$

VAZ088>098-301100-
SOUTHEAST VIRGINIA

CITY           SKY/WX    TMP DP  RH WIND       PRES   REMARKS
NORFOLK        LGT RAIN  74  71  91 S7        30.00S
VIRGINIA BEACH RAIN      76  69  79 SE6       30.00R
NORFOLK NAVAL  LGT RAIN  75  72  90 S5        30.02R
WEST POINT*    CLOUDY    73  72  98 CALM      30.02R
SALUDA*        CLOUDY    72  72 100 CALM      30.00S
NEWPORT NEWS   CLOUDY    74  73  97 S3        30.01R
LANGLEY AFB    CLOUDY    74  73  99 SE2       30.00S
FORT EUSTIS    CLOUDY    73 N/A N/A SE2       29.99S HAZE
WILLIAMSBURG*  FAIR      75  73  94 S5        30.01S
HR EXEC AP*    PTSUNNY   73  72  94 SE5       30.02S
FRANKLIN*      CLOUDY    72  71  97 CALM      30.01R FOG
US460-WAKEFLD  LGT RAIN  72  71  97 CALM      30.00S FOG
$$

VAZ020-022-025-037-045-301100-
WEST CENTRAL AND SOUTHWEST VIRGINIA

CITY           SKY/WX    TMP DP  RH WIND       PRES   REMARKS
STAUNTON*      FAIR      58  58  99 CALM      30.08R FOG
WAYNESBORO*    PTSUNNY   58  57  96 S5        30.07S
HOT SPRINGS VA FAIR      58  58 100 W9        30.13R
LYNCHBURG      CLOUDY    62  60  93 CALM      30.06R
DANVILLE       CLOUDY    64  62  93 N5        30.03S
SOUTH BOSTON*  CLOUDY    64  62  94 CALM      30.03R
MARTINSVILLE   CLOUDY    61  60  97 CALM      30.07R
ROANOKE        MOCLDY    61  59  93 N6        30.08S
BLACKSBURG     FOG       58  58 100 CALM      30.13S VSB 1/2
DUBLIN*        FOG       59  59 100 W3        30.11S VSB 1/2
MARION*        FOG       53  52  96 CALM      30.14S VSB 1/2
HILLSVILLE*    FOG       57  57 100 CALM      30.10S VSB 1/2
RICHLANDS*     FAIR      58  42  53 CALM      30.10S
WISE*            N/A     59  59 100 CALM      30.12R FOG
ABINGDON*      FAIR      62  60  92 E3        30.09S
$$

MDZ021>025-VAZ099-100-301100-
SOUTHERN MARYLAND AND THE DELMARVA PENINSULA

CITY           SKY/WX    TMP DP  RH WIND       PRES   REMARKS
PATUXENT RIVER CLOUDY    71  69  93 CALM      30.00R
BAY BRIDGE APT CLOUDY    68  68 100 CALM      30.01R FOG
LEONARDTOWN    CLOUDY    70  68  94 CALM      30.02S VSB 1/2
DOVER          CLOUDY    73  73 100 S7        29.99R
GEORGETOWN     CLOUDY    73  71  93 S7        30.01S
EASTON         CLOUDY    72  72 100 CALM      30.04R
CAMBRIDGE      CLOUDY    72  72 100 SW3       30.00R
SALISBURY      LGT RAIN  72  71  97 S7        30.01R
OCEAN CITY     LGT RAIN  71  70  96 SW9       30.02R
WALLOPS ISLAND HVY RAIN  70  68  93 S8        30.02R FOG
ACCOMACK*      DRIZZLE   72  70  94 CALM      30.01S
$$

NCZ012>017-030>032-301100-
NORTH CENTRAL AND EASTERN NORTH CAROLINA

CITY           SKY/WX    TMP DP  RH WIND       PRES   REMARKS
ROANOKE RAPIDS FOG       68  68 100 CALM      30.00S VSB<1/4
RALEIGH        FOG       66  65  96 NE3       30.00S VSB 1/4
ELIZABETH CITY LGT RAIN  71  70  96 SE7       30.01S
AHOSKIE*       CLOUDY    71  71  98 CALM      30.00S FOG
EDENTON*       CLOUDY   N/A N/A N/A SE5       30.01S
CURRITUCK*     LGT RAIN  71  71 100 CALM      30.02F
KILL DEVIL HLS RAIN      72  71  96 CALM      30.01S
MANTEO         NOT AVBL
CAPE HATTERAS  HVY RAIN  71  70  96 SW7       30.01S FOG
TARBORO*       CLOUDY    70  69  98 CALM      30.00S FOG
GOLDSBORO      NOT AVBL
WASHINGTON     CLOUDY    72  71  98 CALM      29.99S
GREENVILLE     CLOUDY    72  72 100 CALM      30.00S
NEW BERN       LGT RAIN  72  69  90 E3        29.99S
WILMINGTON     CLOUDY    71  70  96 E5        29.94F
$$

VAZ048-301100-
ELSEWHERE

CITY           SKY/WX    TMP DP  RH WIND       PRES   REMARKS
HARRISBURG PA  LGT RAIN  65  62  90 CALM      30.01R
BALTIMORE      MOCLDY    65  64  97 CALM      30.00S
ANNAPOLIS      CLOUDY    69  65  86 N3        30.01R
ANDREWS AFB    MOCLDY    66  64  94 N2        30.01R
PHILADELPHIA   CLOUDY    71  68  90 W5        30.00S
HENDERSON NC   FOG       63  62  99 CALM      30.02R VSB 1/4
GREENSBORO     CLOUDY    65  61  87 NE7       30.02S
ROCKY MOUNT    CLOUDY    71  70  96 CALM      29.99S
$$

VAZ100-301100-
MARINE

STATION/POSITION TIME  TEMP    WIND        PRES    WAVE   SWELL
                       AIR SEA DIR/SP/G            HT/PER HT/PER
                 (UTC) (F)     (DEG/KT/KT) (MB)    (FT/S) (FT/S)
BRANDYWINE LGT   0900   68     190/ 12/ 13 1015.9R
CAPE MAY NJ      0900   68 68  160/  7/  9 1015.7S
LEWES DE         0900   74 63  210/  4/  7 1015.9R
15NM E FENWICK I 0950   67 64              1016.3F   3/ 7
OCEAN-CITY-INLET 0900   66 59  200/  7/  9 1016.6S
WACHAPREAGUE VA  0900   72 76  190/  8/ 12 1015.8S
THOMAS POINT MD  1000   68 68  340/  2/  2 1017.5R
GOOSES REEF MD   1000   69 69  360/  4/  6 1017.0R   0
COVE POINT MD    0900   67      10/  3/  4 1016.2S
SOLOMONS ISLAND  0900   72 68     CALM       N/A
BISHOPS HEAD MD  0900   73 75  180/  9/ 11 1015.8R
PINEY POINT MD   0900          180/  3/  4   N/A
POTOMAC MD       1000   71 72  160/  4/  4 1014.9R   1
CAMBRIDGE MD     0900   73 69  200/  4/  7 1014.8R
LEWISETTA VA     0900   73 72  200/  7/  9 1015.2S
RAPPAHANNOCK LGT 0900          150/  8/  8 1016.5S
STINGRAY PT      0900   70 70  190/  8/  8 1016.2R   1/ 2
YORK RVR RNG VA  0900   71     150/  7/  8 1015.3R
YORKTOWN VA      0900   73 71  170/  3/  4 1015.5S
JAMESTOWN VA     1000   73 74  160/  4/  6   N/A     0
DOMINION TERM VA 0900   73     140/  2/  3 1015.8S
KIPTOPEKE VA     0900      69  170/ 11/ 12   N/A
CHES BAY BRIDGE  0900   73 63  130/  5/  5 1015.8S
CAPE HENRY VA    0900   73     160/  5/  7   N/A
CHESAPEAKE LGHT  0900   71     170/ 18/ 18 1016.6R
WILLOUBY STN VA  0900   74     160/  6/  7 1016.7S
CAPE HENRY BUOY  0912      69                N/A     4/ 7
1ST LANDING BUOY 1000   70 67  150/ 10/ 12 1016.1R   2/ 4
CAPE CHARLES BUO 0926      69                N/A     3/ 6   2/ 6
OFFSHORE WE BUOY 0921      70                N/A     4/ 7   3/ 7
64NM E OF VA BCH 0950   67 63  160/  8/  8 1016.9R   5/ 6   5/ 6
DUCK PIER NC     0900   64 59  150/ 12/ 13 1015.7S
44100 DUCK FRF   0924      67                N/A     4/ 7
44056 DUCK FRF   0911      62                N/A     3/ 7
OREGON INLET NC  0900   71 79  120/  3/  4 1016.4R
HATTERAS NC      0900   74 77  160/  8/ 10 1015.7S
DIAMOND SHLS NC  0950   75 81  150/ 17/ 23 1015.9F   5/ 9   3/ 9
CAPE LOOKOUC1F1C2F2C3F3C4F4C5F5C6F6C7F7C8M1C9!



USA.gov is the U.S. government's official web portal to all federal, state and local government web resources and services.